FW2982 Weather Reports


time (UTC)temp
C
wind
direction
speed
KPH
gust
KPH
rain 1hr
cm
rain 24hr
cm
rain mn
cm
humidity
%
barometer
mb
20260502170308 15 56 3.2 11.3 0.00 0.00 0.00 48 1011.6
20260502164028 15 337 3.2 8.0 0.00 0.00 0.00 48 1011.9
20260502163528 15 82 3.2 8.0 0.00 0.00 0.00 48 1011.9
20260502163306 13 42 3.2 6.4 0.00 0.00 0.00 51 1011.9
20260502162527 13 45 3.2 4.8 0.00 0.00 0.00 55 1012.0
20260502162028 13 93 3.2 4.8 0.00 0.00 0.00 52 1012.0
20260502161807 13 59 1.6 4.8 0.00 0.00 0.00 56 1012.0
20260502161027 12 172 1.6 8.0 0.00 0.00 0.00 53 1012.0
20260502160527 13 302 0.0 8.0 0.00 0.00 0.00 55 1012.0
20260502160309 13 45 1.6 4.8 0.00 0.00 0.00 54 1012.1
20260502152027 12 28 3.2 11.3 0.00 0.00 0.00 55 1012.4
20260502151525 12 54 3.2 9.7 0.00 0.00 0.00 56 1012.4
20260502151026 12 72 1.6 8.0 0.00 0.00 0.00 59 1012.4
20260502150526 12 38 3.2 8.0 0.00 0.00 0.00 57 1012.5
20260502130502 10 68 1.6 8.0 0.00 0.00 0.00 65 1012.1
20260502123503 9 286 3.2 9.7 0.00 0.00 0.00 66 1012.3
20260502123002 9 175 1.6 9.7 0.00 0.00 0.00 67 1012.3
20260502122503 9 65 3.2 16.1 0.00 0.00 0.00 66 1012.3
20260502122004 9 8 3.2 16.1 0.00 0.00 0.00 67 1012.3
20260502121503 9 348 3.2 9.7 0.00 0.00 0.00 66 1012.3
20260502121002 9 37 3.2 9.7 0.00 0.00 0.00 66 1012.4
20260502120502 9 61 3.2 9.7 0.00 0.00 0.00 67 1012.1
20260502115502 8 61 1.6 11.3 0.00 0.00 0.00 69 1012.3
20260502115003 8 281 4.8 11.3 0.00 0.00 0.00 68 1012.3
20260502114503 8 237 3.2 11.3 0.00 0.00 0.00 69 1012.1
20260502114244 8 39 1.6 6.4 0.00 0.00 0.00 69 1012.0
20260502113506 8 244 3.2 6.4 0.00 0.00 0.00 69 1012.3
20260502112958 8 268 3.2 4.8 0.00 0.00 0.00 70 1012.4
20260502112458 8 295 0.0 4.8 0.00 0.00 0.00 70 1012.4
20260502112237 8 300 0.0 4.8 0.00 0.00 0.00 69 1012.5
20260502111458 8 302 0.0 8.0 0.00 0.00 0.00 69 1012.4
20260502110954 8 172 3.2 9.7 0.00 0.00 0.00 68 1012.3
20260502110454 8 293 1.6 14.5 0.00 0.00 0.00 68 1012.1
20260502105953 8 262 3.2 14.5 0.00 0.00 0.00 68 1012.0
20260502105452 8 27 3.2 14.5 0.00 0.00 0.00 69 1012.0
20260502104952 8 11 4.8 14.5 0.00 0.00 0.00 69 1011.6
20260502104452 8 283 1.6 6.4 0.00 0.00 0.00 70 1011.7
20260502103954 8 61 1.6 11.3 0.00 0.00 0.00 70 1011.7
20260502103450 8 252 3.2 11.3 0.00 0.00 0.00 69 1011.7
20260502102950 8 286 1.6 9.7 0.00 0.00 0.00 69 1011.5
20260502102448 8 24 3.2 9.7 0.00 0.00 0.00 69 1011.6
20260502101945 8 282 1.6 6.4 0.00 0.00 0.00 68 1011.5
20260502101445 8 320 3.2 6.4 0.00 0.00 0.00 69 1011.5
20260502100944 8 18 1.6 8.0 0.00 0.00 0.00 69 1011.4
20260502100446 9 257 1.6 8.0 0.00 0.00 0.00 68 1011.4
20260502091430 10 299 1.6 8.0 0.00 0.00 0.00 67 1010.7
20260502090931 10 45 3.2 8.0 0.00 0.00 0.00 67 1010.6
20260502090430 10 259 1.6 11.3 0.00 0.00 0.00 66 1010.7
20260502070920 11 285 1.6 6.4 0.00 0.00 0.00 70 1010.4
20260502070416 11 164 0.0 4.8 0.00 0.00 0.00 70 1010.5
20260502065917 11 331 1.6 4.8 0.00 0.00 0.00 70 1010.4
20260502065417 11 224 0.0 4.8 0.00 0.00 0.00 70 1010.4
20260502064918 11 213 1.6 4.8 0.00 0.00 0.00 70 1010.3
20260502064656 11 305 0.0 1.6 0.00 0.00 0.00 70 1010.1
20260502063917 11 305 0.0 4.8 0.00 0.00 0.00 69 1010.2
20260502063415 11 305 0.0 8.0 0.00 0.00 0.00 69 1010.2
20260502062914 11 63 3.2 8.0 0.00 0.00 0.00 68 1010.3
20260502062415 12 261 1.6 4.8 0.00 0.00 0.00 68 1010.3
20260502061918 12 252 1.6 6.4 0.00 0.00 0.00 67 1010.3
20260502061416 12 58 3.2 8.0 0.00 0.00 0.00 67 1010.4
20260502060917 12 258 1.6 8.0 0.00 0.00 0.00 67 1010.6
20260502060414 12 217 1.6 6.4 0.00 0.00 0.00 66 1010.6
20260502055913 12 257 1.6 6.4 0.00 0.00 0.00 66 1010.7
20260502055413 12 93 1.6 8.0 0.00 0.00 0.00 67 1010.8
20260502054914 12 37 1.6 9.7 0.00 0.00 0.00 66 1010.8
20260502054413 12 286 4.8 9.7 0.00 0.00 0.00 66 1010.7
20260502053914 12 286 1.6 6.4 0.00 0.00 0.00 67 1010.8
20260502053414 12 48 3.2 6.4 0.00 0.00 0.00 68 1010.7
20260502052913 12 345 1.6 3.2 0.00 0.00 0.00 69 1010.7
20260502052413 12 248 0.0 8.0 0.00 0.00 0.00 70 1010.7
20260502052154 12 248 1.6 8.0 0.00 0.00 0.00 70 1010.9
20260502051413 12 278 0.0 3.2 0.00 0.00 0.00 72 1010.9
20260502050912 12 283 0.0 1.6 0.00 0.00 0.00 72 1010.8
20260502050412 12 283 0.0 1.6 0.00 0.00 0.00 73 1010.9
20260502045913 12 283 0.0 1.6 0.00 0.00 0.00 73 1010.8
20260502045413 12 283 0.0 1.6 0.00 0.00 0.00 73 1010.7
20260502044914 12 283 0.0 0.0 0.00 0.00 0.00 73 1010.9
20260502044412 12 283 0.0 0.0 0.00 0.00 0.00 73 1011.0
20260502043912 12 283 0.0 0.0 0.00 0.00 0.00 72 1010.9
20260502043412 13 283 0.0 0.0 0.00 0.00 0.00 72 1010.9
20260502042911 13 283 0.0 1.6 0.00 0.00 0.00 73 1010.8
20260502042647 13 283 0.0 3.2 0.00 0.00 0.00 71 1010.8
20260502041908 13 283 0.0 4.8 0.00 0.00 0.00 71 1010.8
20260502041642 13 285 0.0 4.8 0.00 0.00 0.00 72 1010.7
20260502040903 13 45 0.0 4.8 0.00 0.00 0.00 72 1010.6
20260502040403 13 44 0.0 4.8 0.00 0.00 0.00 72 1010.6
20260502035905 13 117 0.0 4.8 0.00 0.00 0.00 72 1010.5
20260502035404 13 329 0.0 4.8 0.00 0.00 0.00 72 1010.4
20260502034905 13 293 0.0 4.8 0.00 0.00 0.00 73 1010.4
20260502034403 13 293 1.6 4.8 0.00 0.00 0.00 73 1010.2
20260502033902 13 49 1.6 3.2 0.00 0.00 0.00 71 1010.1
20260502033349 13 48 0.0 1.6 0.00 0.00 0.00 71 1010.2
20260502032852 13 49 0.0 1.6 0.00 0.00 0.00 68 1010.2
20260502032333 13 49 0.0 1.6 0.00 0.00 0.00 67 1010.1
20260502031826 13 49 0.0 1.6 0.00 0.00 0.00 68 1010.1
20260502031603 13 49 0.0 1.6 0.00 0.00 0.00 68 1009.8
20260502030826 13 49 0.0 1.6 0.00 0.00 0.00 66 1009.7
20260502030323 14 49 0.0 1.6 0.00 0.00 0.00 65 1009.6
20260502025824 13 49 0.0 1.6 0.00 0.00 0.00 65 1009.2
20260502025322 13 49 0.0 3.2 0.00 0.00 0.00 64 1009.1
20260502024821 13 49 0.0 3.2 0.00 0.00 0.00 63 1009.0
20260502024317 13 52 0.0 3.2 0.00 0.00 0.00 63 1008.9
20260502024057 13 52 0.0 3.2 0.00 0.00 0.00 64 1008.9
20260502023318 14 49 0.0 3.2 0.00 0.00 0.00 62 1008.9
20260502022817 14 49 0.0 3.2 0.00 0.00 0.00 62 1009.1
20260502022316 14 49 0.0 3.2 0.00 0.00 0.00 64 1009.1
20260502021815 14 52 0.0 1.6 0.00 0.00 0.00 64 1009.1
20260502021311 14 51 0.0 4.8 0.00 0.00 0.00 62 1009.1
20260502021050 14 51 0.0 4.8 0.00 0.00 0.00 59 1009.0
20260502020310 15 89 0.0 4.8 0.00 0.00 0.00 60 1009.3
20260502015808 15 125 0.0 1.6 0.00 0.00 0.00 59 1009.4
20260502015308 15 125 0.0 3.2 0.00 0.00 0.00 57 1009.2
20260502014808 15 125 0.0 3.2 0.00 0.00 0.00 57 1009.2
20260502014308 15 151 0.0 1.6 0.00 0.00 0.00 56 1009.1
20260502013808 15 151 0.0 1.6 0.00 0.00 0.00 54 1009.1
20260502013307 15 127 0.0 1.6 0.00 0.00 0.00 55 1009.0
20260502012807 15 127 0.0 1.6 0.00 0.00 0.00 55 1008.8
20260502012309 15 125 0.0 3.2 0.00 0.00 0.00 54 1008.7
20260502011807 15 125 0.0 4.8 0.00 0.00 0.00 53 1008.5
20260502011548 15 55 0.0 6.4 0.00 0.00 0.00 53 1008.5
20260502010811 16 75 1.6 6.4 0.00 0.00 0.00 53 1008.4
20260502010548 16 104 0.0 4.8 0.00 0.00 0.00 52 1008.3
20260502005809 16 104 0.0 6.4 0.00 0.00 0.00 53 1008.2
20260502005306 16 93 1.6 9.7 0.00 0.00 0.00 54 1008.2
20260502004807 16 127 0.0 9.7 0.00 0.00 0.00 51 1008.1
20260502004306 16 118 0.0 4.8 0.00 0.00 0.00 51 1008.1
20260502003807 16 102 1.6 4.8 0.00 0.00 0.00 50 1008.0
20260502003307 16 31 1.6 6.4 0.00 0.00 0.00 50 1007.9
20260502003048 16 159 0.0 9.7 0.00 0.00 0.00 49 1007.8
20260502002549 16 58 3.2 9.7 0.00 0.00 0.00 47 1007.7
20260502001807 16 128 1.6 3.2 0.00 0.00 0.00 46 1007.8
20260502001549 16 158 0.0 1.6 0.00 0.00 0.00 45 1007.7
20260502001049 16 158 0.0 1.6 0.00 0.00 0.00 45 1007.7
20260502000305 16 158 0.0 3.2 0.00 0.00 0.00 44 1007.8
20260501235805 16 158 0.0 3.2 0.00 0.00 0.00 43 1007.7
20260501235306 16 141 0.0 3.2 0.00 0.00 0.00 43 1007.7
20260501234805 17 141 0.0 3.2 0.00 0.00 0.00 43 1007.7
20260501234307 17 142 0.0 6.4 0.00 0.00 0.00 43 1007.6
20260501233806 17 142 0.0 6.4 0.00 0.00 0.00 42 1007.6
20260501233306 17 227 0.0 4.8 0.00 0.00 0.00 42 1007.6
20260501232806 17 231 1.6 4.8 0.00 0.00 0.00 42 1007.5
20260501232306 17 207 1.6 11.3 0.00 0.00 0.00 43 1007.4
20260501232046 17 141 1.6 11.3 0.00 0.00 0.00 39 1007.4
20260501231305 17 266 1.6 6.4 0.00 0.00 0.00 42 1007.4
20260501230805 17 38 0.0 6.4 0.00 0.00 0.00 40 1007.4
20260501230305 18 234 3.2 6.4 0.00 0.00 0.00 42 1007.5
20260501230046 18 226 0.0 8.0 0.00 0.00 0.00 41 1007.5
20260501225306 18 243 3.2 8.0 0.00 0.00 0.00 41 1007.4
20260501225044 18 133 0.0 8.0 0.00 0.00 0.00 41 1007.4
20260501224304 18 133 3.2 8.0 0.00 0.00 0.00 38 1007.5
20260501224045 18 240 1.6 9.7 0.00 0.00 0.00 41 1007.6
20260501223304 18 264 3.2 14.5 0.00 0.00 0.00 40 1007.6
20260501222803 18 193 3.2 14.5 0.00 0.00 0.00 43 1007.7
20260501222305 18 154 1.6 9.7 0.00 0.00 0.00 40 1007.7
20260501222043 18 221 4.8 16.1 0.00 0.00 0.00 39 1007.8
20260501221302 19 244 4.8 16.1 0.00 0.00 0.00 37 1007.8
20260501220802 19 262 3.2 17.7 0.00 0.00 0.00 38 1007.8
20260501220300 19 199 4.8 17.7 0.00 0.00 0.00 38 1008.0
20260501220019 19 230 3.2 8.0 0.00 0.00 0.00 38 1007.8
20260501215300 19 221 1.6 9.7 0.00 0.00 0.00 37 1007.8
20260501214800 19 221 4.8 9.7 0.00 0.00 0.00 39 1007.8
20260501214258 19 279 3.2 6.4 0.00 0.00 0.00 38 1007.8
20260501213800 19 217 1.6 6.4 0.00 0.00 0.00 40 1007.9
20260501213258 19 224 1.6 9.7 0.00 0.00 0.00 38 1007.9
20260501212759 20 234 3.2 9.7 0.00 0.00 0.00 36 1007.9
20260501212258 20 285 3.2 9.7 0.00 0.00 0.00 37 1007.9
20260501211755 19 175 1.6 6.4 0.00 0.00 0.00 40 1007.9
20260501211253 20 209 1.6 9.7 0.00 0.00 0.00 39 1008.0
20260501210755 20 228 1.6 9.7 0.00 0.00 0.00 38 1008.0
20260501210256 20 251 1.6 9.7 0.00 0.00 0.00 41 1008.0
20260501205754 20 286 4.8 16.1 0.00 0.00 0.00 38 1007.9
20260501205254 20 149 4.8 16.1 0.00 0.00 0.00 38 1007.9
20260501204750 20 159 3.2 11.3 0.00 0.00 0.00 39 1007.9
20260501204252 19 275 3.2 11.3 0.00 0.00 0.00 40 1008.0
20260501203746 19 231 3.2 11.3 0.00 0.00 0.00 39 1008.1
20260501203248 19 63 3.2 9.7 0.00 0.00 0.00 43 1008.1
20260501202806 19 223 3.2 6.4 0.00 0.00 0.00 40 1008.3
20260501202758 20 134 1.6 9.7 0.00 0.00 0.00 40 1008.2
20260501201744 19 171 1.6 16.1 0.00 0.00 0.00 41 1008.4
20260501201516 19 76 3.2 16.1 0.00 0.00 0.00 41 1008.5
20260501200737 20 220 1.6 9.7 0.00 0.00 0.00 38 1008.4
20260501200238 20 45 3.2 9.7 0.00 0.00 0.00 37 1008.5
20260501195734 19 93 3.2 11.3 0.00 0.00 0.00 38 1008.6
20260501195234 20 214 3.2 11.3 0.00 0.00 0.00 38 1008.8
20260501194733 20 109 3.2 11.3 0.00 0.00 0.00 39 1008.8
20260501194256 20 199 3.2 14.5 0.00 0.00 0.00 38 1009.1
20260501194249 20 188 4.8 14.5 0.00 0.00 0.00 37 1009.1
20260501193232 20 44 1.6 9.7 0.00 0.00 0.00 38 1009.2
20260501192734 20 190 3.2 8.0 0.00 0.00 0.00 36 1009.3
20260501192234 20 238 1.6 11.3 0.00 0.00 0.00 39 1009.2
20260501191732 20 213 3.2 11.3 0.00 0.00 0.00 40 1009.4
20260501191231 20 276 1.6 9.7 0.00 0.00 0.00 42 1009.6
20260501190733 20 182 3.2 16.1 0.00 0.00 0.00 39 1009.6
20260501190230 20 353 6.4 16.1 0.00 0.00 0.00 38 1009.6
20260501185732 20 250 1.6 8.0 0.00 0.00 0.00 41 1009.6
20260501185231 20 245 4.8 16.1 0.00 0.00 0.00 37 1009.8
20260501184731 20 17 4.8 16.1 0.00 0.00 0.00 40 1009.7
20260501184232 20 247 3.2 14.5 0.00 0.00 0.00 38 1009.9
20260501184014 20 237 3.2 14.5 0.00 0.00 0.00 42 1009.9
20260501183232 20 223 6.4 11.3 0.00 0.00 0.00 39 1010.0
20260501182730 20 295 3.2 9.7 0.00 0.00 0.00 40 1010.0
20260501182514 20 241 3.2 9.7 0.00 0.00 0.00 41 1010.2
20260501181730 20 240 4.8 9.7 0.00 0.00 0.00 43 1010.2
20260501181231 19 149 1.6 9.7 0.00 0.00 0.00 40 1010.4
20260501180723 20 96 1.6 11.3 0.00 0.00 0.00 39 1010.4
20260501180220 20 248 4.8 11.3 0.00 0.00 0.00 41 1010.4
20260501175720 20 290 1.6 9.7 0.00 0.00 0.00 44 1010.4
20260501175220 19 286 3.2 9.7 0.00 0.00 0.00 44 1010.4
20260501174956 19 178 1.6 9.7 0.00 0.00 0.00 40 1010.5
20260501174219 19 38 3.2 9.7 0.00 0.00 0.00 40 1010.5
20260501173717 20 100 3.2 9.7 0.00 0.00 0.00 40 1010.7
20260501173216 20 97 4.8 9.7 0.00 0.00 0.00 36 1010.6
20260501172717 20 224 1.6 6.4 0.00 0.00 0.00 40 1010.7
20260501172217 19 196 0.0 8.0 0.00 0.00 0.00 41 1010.8
20260501171716 20 216 3.2 8.0 0.00 0.00 0.00 40 1010.9